OPS 4682 DEB, 1399

Orbit data source: Space-Track

OPS 4682 DEB, 1399 is space debris in LEO originally from a launch on Sat, 03 Apr 1965 UTC launched from the Air Force Western Test Range (AFWTR). Debris objects in space refer to the collection of defunct objects orbiting the Earth. Examples of debris include non-operational satellites, rocket bodies, and fragments generated from explosions, collisions, or faulty payload assembly.

Loading next visibility...
OPS 4682 DEB details
Identifier
1399, 1965-027E
Orbit
LEO
Last TLE update11 hours ago
Origin
Flag of USUSAF SD (US)
ManufacturerUnknown
MissionSpacecraft
Bus & MotorUnknown
MassUnknown
Launch date (UTC)
1965-04-03 (60 years ago)
Launch vehicleUnknown
Launch site
Air Force Western Test Range (AFWTR)
Object type
Payload
Rocket body
Debris
Shape & HBRUnknown
Radar Cross SectionSmall (<0.1 m²)

Expand to show TLE details & history

TLE from 11 hours ago
0 OPS 4682 DEB
1  1399U 65027E   25047.60778630  .00000059  00000-0  17045-3 0  9991
2  1399  90.2588  13.2759 0009958 120.4782 239.7325 12.99646204499846
Epoch: 2025-02-16T14:35Z
Definitive object data (Epoch: 2025-02-16T14:35:12.736Z)
Latitude0.00003°
Longitude7.63442°
Altitude1,270.198 km
Speed7.219 km/s
True Right ascension00h 53m 06s
True Declination0° 00' 00"
Sunlit
Object was in daylight at TLE epoch
Visualization TLE readout
Latitude-78.45206°
Longitude8.90544°
Altitude1,298.7 km
Speed7.203 km/s
Apparent Right ascension17h 09m 52s
Apparent Declination-70° 55' 27"
Sunlit
Object is in daylight
Visualization observer readout
Local Sidereal Time04:04:48
Azimuth189.917° SSW
Elevation-57.894°
Doppler factor1
Orbital elements
Apogee altitude1,268.207 km
Perigee altitude1,252.994 km
Semi-major axis7,638.738 km
Eccentricity0.0009958
Inclination90.2588°
RAAN13.2759°
Arg. of periapsis120.4782°
True anomaly239.63401°
Mean anomaly239.7325°
Eccentric anomaly239.68325°
Mean motion3.25095 °/min
BSTAR0.00017045
Orbital period110.74 mins
Loading maneuver chart data...
Loading historical data...
Loading historical data...
Loading historical data...
Loading historical data...
Loading historical data...
Loading historical data...
Loading historical data...

OPS 4682 DEB Visibility forecast

Observer location: undefined°, undefined

Span
Click to sort rows by Start time (UTC) header in descending order
Start Az.
Max El. time (UTC)
Max El. Az.
Max El.
End time (UTC)
End Az.
13 mins2025-02-17 09:41:10.549Z9.528° NNE2025-02-17 09:47:10.549Z104.489° ESE43.246°2025-02-17 09:54:10.549Z174.486° S
8 mins2025-02-17 11:33:10.549Z322.567° NNW2025-02-17 11:36:10.549Z294.441° NW19.787°2025-02-17 11:41:10.549Z248.53° W
8 mins2025-02-17 20:19:10.549Z100.465° ESE2025-02-17 20:22:10.549Z72.845° E18.45°2025-02-17 20:27:10.549Z29.57° NE
13 mins2025-02-17 22:06:10.549Z183.807° SSW2025-02-17 22:12:10.549Z274.745° WNW44.183°2025-02-17 22:19:10.549Z354.16° N
|